Stations météo

réclame
Mon MeteoGroup
Calvi, France (7754): Température de l'air & dewpoint: 14.11.2017 12:00:00 - 20.11.2017 12:00:00 (CET)Calvi, France (7754): Température de l'air 5cm: 14.11.2017 12:00:00 - 20.11.2017 12:00:00 (CET)Calvi, France (7754): Vitesse du vent & gusts: 14.11.2017 12:00:00 - 20.11.2017 12:00:00 (CET)Calvi, France (7754): Direction du vent: 14.11.2017 12:00:00 - 20.11.2017 12:00:00 (CET)Calvi, France (7754): reduced air pressure: 14.11.2017 12:00:00 - 20.11.2017 12:00:00 (CET)Calvi, France (7754): visibility: 14.11.2017 12:00:00 - 20.11.2017 12:00:00 (CET)Calvi, France (7754): Ensoleillement: 14.11.2017 12:00:00 - 20.11.2017 12:00:00 (CET)Calvi, France (7754): Quantités de précipitations: 14.11.2017 12:00:00 - 20.11.2017 12:00:00 (CET)
Date & Time tt [°C] td [°C] tt 5cm [°C] ff [km/h] ff [knt] fx [km/h] fx [knt] dd ppp [hPa] vv [km] sd [min] rr [mm]
20.11.2017 12:00:00 16,5 8,9 19,6 8 4 15 8 N 1019,9 10 60 0,0
20.11.2017 11:00:00 16,4 7,6 20,9 0 0 6 3 N 1020,1 10 60 0,0
20.11.2017 10:00:00 13,8 6,6 13,4 0 0 6 4 N 1020,1 10 60 0,0
20.11.2017 09:00:00 10,2 6,2 6,1 2 1 15 8 SE 1019,7 10 37 0,0
20.11.2017 08:00:00 6,7 3,7 5,3 9 5 16 9 S 1019,1 10 0 0,0
20.11.2017 07:00:00 6,2 4,2 4,8 10 6 15 8 SSW 1018,7 48 0 0,0
20.11.2017 06:00:00 6,3 4,0 5,0 11 6 16 8 S 1018,4 10 0 0,0
20.11.2017 05:00:00 6,7 4,7 5,1 9 5 16 8 S 1018,2 10 0 0,0
20.11.2017 04:00:00 6,7 4,4 5,2 5 3 18 10 S 1017,8 10 0 0,0
20.11.2017 03:00:00 7,0 5,0 5,1 4 2 14 7 - 1017,9 10 0 0,0
20.11.2017 02:00:00 7,8 5,8 5,9 9 5 16 9 S 1017,5 10 0 0,0
20.11.2017 01:00:00 7,0 4,8 6,3 5 3 15 8 S 1017,6 10 0 0,0
20.11.2017 00:00:00 7,1 5,4 5,9 8 4 15 8 SSW 1017,3 10 0 0,0
19.11.2017 23:00:00 7,2 5,0 6,4 5 3 16 9 S 1016,6 10 0 0,0
19.11.2017 22:00:00 7,6 5,6 6,9 13 7 17 9 SSE 1016,1 10 0 0,0
19.11.2017 21:00:00 9,2 7,5 6,9 11 6 16 8 S 1015,5 10 0 0,0
19.11.2017 20:00:00 9,0 7,3 7,7 9 5 16 9 SSE 1015,2 10 0 0,0
19.11.2017 19:00:00 9,6 7,5 8,3 8 4 10 6 SSW 1014,4 19 0 0,0
19.11.2017 18:00:00 10,9 7,8 9,3 4 2 8 5 - 1013,9 10 0 0,0
19.11.2017 17:00:00 13,4 8,9 12,2 5 3 9 5 - 1013,1 10 0 0,0
19.11.2017 16:00:00 15,0 9,1 15,7 5 3 10 5 ESE 1012,3 10 1 0,0
19.11.2017 15:00:00 16,0 9,0 17,7 5 3 14 8 NNE 1012,1 52 50 0,0
19.11.2017 14:00:00 17,5 9,1 20,1 9 5 15 8 SSW 1012,0 10 60 0,0
19.11.2017 13:00:00 17,1 8,0 18,4 8 4 21 12 N 1013,0 10 60 0,0
19.11.2017 12:00:00 16,8 5,7 19,3 5 3 15 8 N 1013,5 10 60 0,0
19.11.2017 11:00:00 16,5 5,1 17,7 5 3 15 8 N 1013,8 55 60 0,0
19.11.2017 10:00:00 14,2 6,3 14,3 5 3 13 7 - 1013,9 10 60 0,0
19.11.2017 09:00:00 10,8 4,9 8,4 5 3 12 7 - 1014,7 10 26 0,0
19.11.2017 08:00:00 9,8 3,5 7,0 8 4 19 11 SE 1014,5 10 0 0,0
19.11.2017 07:00:00 8,4 3,0 4,9 18 10 23 12 SSE 1014,4 10 0 0,0
19.11.2017 06:00:00 6,6 2,1 3,8 4 2 11 6 - 1014,6 10 0 0,0
19.11.2017 05:00:00 6,5 2,0 5,1 5 3 10 5 - 1015,3 10 0 0,0
19.11.2017 04:00:00 6,8 3,0 4,8 5 3 13 7 S 1015,9 10 0 0,0
19.11.2017 03:00:00 6,8 3,0 4,8 6 3 12 7 S 1016,1 39 0 0,0
19.11.2017 02:00:00 6,4 3,2 5,1 4 2 15 8 S 1016,4 10 0 0,0
19.11.2017 01:00:00 6,5 3,6 5,7 9 5 15 8 S 1017,0 10 0 0,0
19.11.2017 00:00:00 6,4 3,7 5,8 8 4 16 9 S 1017,6 10 0 0,0
18.11.2017 23:00:00 6,8 4,6 6,0 9 5 15 8 S 1017,6 10 0 0,0
18.11.2017 22:00:00 7,9 5,9 6,8 5 3 14 8 S 1017,6 10 0 0,0
18.11.2017 21:00:00 8,3 5,9 7,4 8 5 14 8 SSW 1017,5 37 0 0,0
18.11.2017 20:00:00 8,5 6,5 7,0 9 5 13 7 SSW 1017,4 10 0 0,0
18.11.2017 19:00:00 9,3 6,9 8,2 11 6 16 8 SSW 1017,2 10 0 0,0
18.11.2017 18:00:00 10,2 7,1 9,5 9 5 16 9 S 1016,8 33 0 0,0
18.11.2017 17:00:00 13,4 8,5 12,1 9 5 14 7 SSE 1016,1 10 12 0,0
18.11.2017 16:00:00 16,1 9,3 18,2 8 4 20 11 WNW 1015,7 10 60 0,0
18.11.2017 15:00:00 16,9 9,1 19,9 11 6 24 13 NNW 1015,6 10 60 0,0
18.11.2017 14:00:00 17,2 8,3 19,7 16 9 27 15 N 1015,7 10 60 0,0
18.11.2017 13:00:00 17,6 8,7 19,1 15 8 23 12 N 1015,6 10 60 0,0
18.11.2017 12:00:00 17,1 9,0 19,6 11 6 19 11 N 1016,1 10 60 0,0
18.11.2017 11:00:00 16,5 9,7 21,7 5 3 10 6 - 1016,5 10 60 0,0
18.11.2017 10:00:00 15,1 9,7 15,0 4 2 8 4 - 1016,3 10 60 0,0
18.11.2017 09:00:00 10,9 7,9 6,7 5 3 12 6 S 1016,6 57 38 0,0
18.11.2017 08:00:00 7,3 5,6 6,0 5 3 11 6 SSW 1016,3 10 0 0,0
18.11.2017 07:00:00 7,6 5,7 5,8 9 5 12 7 SSW 1015,6 10 0 0,0
18.11.2017 06:00:00 9,0 6,4 6,5 11 6 16 9 S 1015,4 42 0 0,0
18.11.2017 05:00:00 7,6 5,4 6,2 5 3 17 9 SSE 1015,9 10 0 0,0
18.11.2017 04:00:00 8,8 6,2 7,3 11 6 18 10 SSW 1015,7 10 0 0,0
18.11.2017 03:00:00 9,4 7,0 8,5 12 6 19 10 SSW 1015,9 60 0 0,0
18.11.2017 02:00:00 8,8 6,8 7,5 11 6 18 10 SSW 1016,3 10 0 0,0
18.11.2017 01:00:00 8,2 6,5 6,9 8 4 19 10 SSW 1016,6 51 0 0,0
18.11.2017 00:00:00 8,2 6,5 6,9 8 4 14 7 S 1016,7 10 0 0,0
17.11.2017 23:00:00 8,4 6,9 7,1 11 6 14 8 S 1016,5 10 0 0,0
17.11.2017 22:00:00 8,5 6,6 7,2 4 2 13 7 S 1016,5 10 0 0,0
17.11.2017 21:00:00 9,0 7,1 7,9 4 2 13 7 - 1016,3 10 0 0,0
17.11.2017 20:00:00 8,8 6,8 8,2 5 3 12 7 S 1016,2 10 0 0,0
17.11.2017 19:00:00 10,7 7,8 9,9 9 5 16 9 SSW 1015,7 10 0 0,0
17.11.2017 18:00:00 11,8 8,3 11,0 9 5 16 8 S 1015,7 10 0 0,0
17.11.2017 17:00:00 14,3 8,9 13,0 5 3 13 7 - 1015,1 10 13 0,0
17.11.2017 16:00:00 16,5 9,7 18,8 5 3 17 9 WNW 1014,7 10 60 0,0
17.11.2017 15:00:00 17,3 9,5 20,2 13 7 22 12 NNW 1014,6 10 60 0,0
17.11.2017 14:00:00 17,7 9,6 19,6 8 4 22 12 NW 1015,1 10 60 0,0
17.11.2017 13:00:00 17,1 9,5 18,1 13 7 24 13 NNW 1015,6 60 60 0,0
17.11.2017 12:00:00 17,1 8,8 19,2 13 7 22 12 NNW 1015,6 10 60 0,0
17.11.2017 11:00:00 17,5 8,9 19,9 4 2 10 5 - 1016,3 10 60 0,0
17.11.2017 10:00:00 16,2 9,1 15,2 0 0 10 5 N 1016,6 10 60 0,0
17.11.2017 09:00:00 11,7 8,4 7,9 5 3 9 5 S 1016,5 10 39 0,0
17.11.2017 08:00:00 9,1 6,5 7,1 9 5 17 9 SSW 1016,3 10 0 0,0
17.11.2017 07:00:00 8,6 5,7 7,2 8 4 16 9 S 1015,8 10 0 0,0
17.11.2017 06:00:00 8,2 5,5 6,5 5 3 18 10 - 1015,9 10 0 0,0
17.11.2017 05:00:00 9,2 5,9 7,9 8 4 21 11 S 1015,6 60 0 0,0
17.11.2017 04:00:00 9,8 6,0 7,8 13 7 19 10 SSW 1016,1 10 0 0,0
17.11.2017 03:00:00 9,4 5,9 8,3 15 8 19 10 SSW 1016,4 10 0 0,0
17.11.2017 02:00:00 9,5 6,2 7,9 12 7 19 10 SSW 1016,8 60 0 0,0
17.11.2017 01:00:00 9,1 5,1 7,5 11 6 19 10 SSW 1017,1 10 0 0,0
17.11.2017 00:00:00 9,8 6,1 7,0 13 7 18 10 SSW 1017,4 10 0 0,0
16.11.2017 23:00:00 9,1 6,0 7,5 9 5 15 8 S 1017,5 10 0 0,0
16.11.2017 22:00:00 8,7 6,0 7,6 11 6 19 10 SSW 1017,6 10 0 0,0
16.11.2017 21:00:00 8,9 6,3 7,5 13 7 17 9 SSW 1017,5 10 0 0,0
16.11.2017 20:00:00 8,7 6,3 7,3 8 4 13 7 S 1017,3 10 0 0,0
16.11.2017 19:00:00 9,2 6,6 8,2 8 5 12 6 SSW 1017,1 56 0 0,0
16.11.2017 18:00:00 11,3 7,6 9,6 5 3 9 5 S 1016,7 10 0 0,0
16.11.2017 17:00:00 13,9 8,3 12,6 5 3 19 10 - 1016,5 10 14 0,0
16.11.2017 16:00:00 15,9 8,4 17,7 15 8 31 17 N 1016,5 10 60 0,0
16.11.2017 15:00:00 16,3 9,0 18,8 21 11 39 21 N 1016,3 60 60 0,0
16.11.2017 14:00:00 17,2 8,3 19,5 25 14 40 21 N 1016,1 60 60 0,0
16.11.2017 13:00:00 17,9 7,0 17,7 13 7 46 25 ENE 1016,4 10 60 0,0
16.11.2017 12:00:00 17,3 7,3 18,6 18 10 37 20 N 1017,1 10 60 0,0
16.11.2017 11:00:00 16,5 6,9 18,5 21 11 30 16 NNE 1017,6 10 60 0,0
16.11.2017 10:00:00 15,0 7,3 14,5 15 8 25 13 - 1017,7 10 60 0,0
16.11.2017 09:00:00 10,8 7,3 6,8 5 3 12 6 S 1017,6 10 38 0,0
16.11.2017 08:00:00 7,3 4,8 6,2 8 4 14 8 SW 1017,7 10 0 0,0
16.11.2017 07:00:00 6,8 4,6 6,0 5 3 14 8 SSE 1017,2 60 0 0,0
16.11.2017 06:00:00 7,7 4,8 6,7 8 4 16 8 SSW 1017,0 10 0 0,0
16.11.2017 05:00:00 9,7 5,5 8,5 8 4 14 8 SSE 1016,5 10 0 0,0
16.11.2017 04:00:00 11,7 6,2 10,4 11 6 34 18 N 1016,4 10 0 0,0
16.11.2017 03:00:00 13,0 6,1 12,2 18 10 46 25 NNW 1016,1 10 0 0,0
16.11.2017 02:00:00 13,4 5,8 12,3 26 14 44 24 N 1015,8 10 0 0,0
16.11.2017 01:00:00 13,6 6,2 12,8 24 13 40 22 NNE 1016,3 10 0 0,0
16.11.2017 00:00:00 13,9 6,0 12,8 16 9 31 17 N 1016,4 10 0 0,0
15.11.2017 23:00:00 13,6 7,1 12,1 21 11 36 19 N 1016,6 10 0 0,0
15.11.2017 22:00:00 13,2 6,5 10,7 8 4 29 16 WNW 1016,3 10 0 0,0
15.11.2017 21:00:00 13,0 6,8 10,1 8 4 24 13 NE 1016,1 10 0 0,0
15.11.2017 20:00:00 10,7 6,1 10,0 9 5 17 9 - 1016,2 10 0 0,0
15.11.2017 19:00:00 11,7 6,0 10,2 8 4 27 15 S 1015,7 10 0 0,0
15.11.2017 18:00:00 12,9 5,8 11,8 16 9 33 18 N 1015,4 10 0 0,0
15.11.2017 17:00:00 13,9 6,0 12,9 18 10 31 17 NNE 1015,1 10 11 0,0
15.11.2017 16:00:00 15,3 6,3 15,2 21 11 37 20 NNE 1015,4 10 36 0,0
15.11.2017 15:00:00 15,0 6,5 15,3 26 14 37 20 NNE 1014,9 10 43 0,0
15.11.2017 14:00:00 15,2 6,7 16,6 24 13 47 25 NE 1014,8 10 58 0,0
15.11.2017 13:00:00 15,7 6,1 16,0 29 16 50 27 NNE 1014,5 10 60 0,0
15.11.2017 12:00:00 15,4 5,3 15,1 29 16 49 26 N 1014,8 10 35 0,0
15.11.2017 11:00:00 15,4 4,4 15,0 26 14 45 24 NNE 1014,9 10 10 0,0
15.11.2017 10:00:00 15,0 4,1 13,3 29 16 47 26 NNE 1014,3 10 0 0,0
15.11.2017 09:00:00 13,8 3,5 12,0 21 11 29 16 N 1014,0 10 0 0,0
15.11.2017 08:00:00 12,8 3,4 11,6 13 7 39 21 N 1013,9 10 0 0,0
15.11.2017 07:00:00 12,9 2,7 11,7 15 8 31 17 NNE 1013,9 10 0 0,0
15.11.2017 06:00:00 13,0 3,1 11,6 13 7 20 11 N 1013,0 60 0 0,0
15.11.2017 05:00:00 13,3 3,1 11,8 8 4 27 15 NE 1013,0 10 0 0,0
15.11.2017 04:00:00 13,0 2,8 10,2 11 6 27 15 NNE 1013,1 10 0 0,0
15.11.2017 03:00:00 11,7 1,9 9,6 9 5 19 10 NNE 1013,6 10 0 0,0
15.11.2017 02:00:00 11,9 1,5 10,2 11 6 23 12 N 1013,5 10 0 0,0
15.11.2017 01:00:00 12,1 2,3 10,3 9 5 18 10 NNW 1013,4 10 0 0,0
15.11.2017 00:00:00 12,9 2,1 10,5 11 6 24 13 NNE 1014,1 10 0 0,0
14.11.2017 23:00:00 12,6 1,9 10,9 13 7 33 18 NNE 1014,0 10 0 0,0
14.11.2017 22:00:00 12,2 1,8 10,1 16 9 23 12 N 1013,8 60 0 0,0
14.11.2017 21:00:00 12,4 1,7 10,9 16 9 27 15 NNE 1013,9 10 0 0,0
14.11.2017 20:00:00 12,4 2,0 8,9 11 6 29 16 NNE 1013,8 60 0 0,0
14.11.2017 19:00:00 10,6 2,4 9,0 11 6 24 13 N 1013,8 10 0 0,0
14.11.2017 18:00:00 11,8 2,3 10,4 16 9 46 25 NNE 1013,1 10 0 0,0
14.11.2017 17:00:00 12,6 1,9 11,5 26 14 47 26 N 1012,4 10 11 0,0
14.11.2017 16:00:00 13,5 2,7 13,4 16 9 51 28 N 1012,0 10 54 0,0
14.11.2017 15:00:00 13,5 3,6 11,9 28 15 43 23 NE 1011,7 10 23 0,0
14.11.2017 14:00:00 12,3 3,5 11,9 24 13 61 33 NE 1011,8 10 1 0,0
14.11.2017 13:00:00 12,5 4,9 9,9 24 13 59 32 NNE 1011,9 10 41 0,0
14.11.2017 12:00:00 11,1 5,6 9,6 39 21 68 37 NE 1011,8 12 27 0,2

tt = Température de l'air
td = dewpoint
tt 5cm = Température de l'air 5cm
ff = Vitesse du vent
fx = gusts
dd = Direction du vent
ppp = reduced air pressure
vv = visibility
sd = Ensoleillement
rr = Quantités de précipitations

stations d'obs. à proximité